Wind_Speed
16 16 16 15 15 15 14 13 12 11 9 8 7 6 5 5 6 7 9 9 10 10 12 12 14 14 15 15 15 15 12 16 20 12 9 10 9 9 8 8 8 9 8 7 7 7 8 7 7 6 5 5 5 7 7 10 12 13 11 11 14 14 11 9 10 8 6 7 7 4 4 1 2 3 5 7 8 10 12 13 14 14 15 16 17 19 22 26
18 17 17 16 15 14 14 12 11 9 8 7 6 6 6 7 8 10 10 9 9 10 12 14 15 15 16 16 16 15 14 19 19 11 12 14 11 11 9 9 8 8 8 7 6 5 7 8 7 6 7 7 7 7 9 11 9 10 11 10 12 13 11 10 10 8 6 6 5 3 4 1 3 5 8 8 9 12 11 12 13 12 13 15 17 21 25 29
17 16 15 14 14 13 12 11 10 9 9 8 9 9 10 11 11 11 11 11 10 9 10 12 13 14 15 16 16 16 16 18 17 14 16 15 11 11 10 10 9 8 8 7 7 6 8 9 7 8 8 7 8 7 8 9 5 5 7 7 10 10 8 9 7 5 6 4 3 3 2 2 4 7 9 9 10 11 10 12 13 14 16 19 22 25 28 30
15 14 14 13 13 12 11 11 11 12 12 13 13 13 13 13 13 13 13 14 13 12 11 10 10 9 8 9 11 13 15 17 16 16 17 15 12 11 10 11 10 10 9 8 9 9 10 10 8 8 8 6 7 7 7 6 2 3 5 6 10 8 6 8 5 4 5 4 3 2 2 3 5 7 9 11 11 11 12 15 17 19 20 21 23 25 28 32
14 14 13 12 12 12 12 13 14 15 16 17 16 16 16 15 15 14 15 15 15 16 15 13 11 10 9 7 7 8 10 14 15 15 15 15 15 12 11 12 11 10 10 8 9 10 10 10 9 8 7 6 6 7 7 5 2 3 5 7 10 9 6 7 6 5 5 4 3 2 3 3 6 7 9 10 10 12 14 16 18 20 21 22 25 28 33 39
14 13 13 13 13 14 15 16 17 18 18 18 18 18 16 15 15 14 15 16 16 16 16 15 14 13 13 13 12 10 10 13 15 14 14 15 15 14 13 12 11 10 9 8 9 10 9 9 9 7 4 4 6 7 6 6 4 3 6 9 10 9 6 7 8 5 5 5 4 4 5 6 8 7 9 11 12 14 16 18 19 19 21 24 30 35 40 46
16 16 16 16 17 18 18 18 18 18 17 17 16 15 14 14 14 14 15 15 16 16 16 16 15 15 14 14 15 14 14 16 15 15 14 14 15 15 15 14 12 10 9 8 8 8 8 9 9 7 5 5 6 6 6 7 7 4 6 10 10 9 6 8 9 6 6 6 5 6 8 9 9 10 12 14 14 16 16 17 17 19 24 30 36 41 45 49
18 18 19 19 19 19 18 18 17 17 16 15 14 14 14 14 14 15 15 15 15 15 16 15 14 13 11 12 14 14 15 17 16 14 13 13 14 14 14 15 13 11 11 9 8 8 9 9 8 7 5 5 5 6 6 7 8 7 7 10 9 8 7 8 8 6 7 6 6 8 9 9 10 13 15 15 14 15 15 15 18 23 30 35 41 44 45 48
21 21 20 20 20 19 19 18 17 17 16 16 16 16 17 16 16 16 16 15 15 15 15 15 14 13 10 10 12 13 16 18 17 16 14 13 13 13 14 14 13 13 12 10 9 9 9 8 8 7 6 6 6 7 7 6 8 9 9 10 8 8 8 8 7 7 7 6 8 8 8 8 11 15 15 14 13 13 14 17 23 28 34 39 42 42 43 46
24 23 23 22 21 21 20 19 19 18 18 19 19 19 19 19 19 18 18 17 17 17 18 16 14 14 13 11 10 14 19 19 18 18 15 14 13 13 12 11 12 14 13 11 10 9 9 8 7 6 6 6 7 9 8 8 10 10 10 9 8 8 8 8 6 7 7 7 8 7 8 9 13 17 15 13 12 13 15 20 26 30 36 41 41 39 40 45
25 25 24 23 22 22 21 21 21 20 21 21 21 21 21 20 20 19 18 18 17 18 18 15 14 15 14 12 14 18 21 20 20 19 17 16 13 10 10 10 13 13 13 12 10 10 9 8 7 6 5 6 8 9 10 12 11 11 11 8 10 10 8 7 6 6 6 7 7 7 11 12 15 17 14 12 12 13 17 22 27 33 39 41 39 36 38 47
24 23 23 22 22 22 22 21 21 21 21 21 21 21 21 21 20 19 19 18 18 18 17 17 16 16 13 15 21 23 22 22 22 22 20 18 13 11 11 12 13 13 12 12 11 11 9 8 8 8 8 9 10 9 11 12 10 12 11 8 11 11 8 8 6 6 5 6 7 9 12 13 17 18 15 13 13 14 18 24 30 37 41 39 40 38 37 48
21 22 22 22 22 22 21 21 20 20 20 20 21 22 22 23 23 23 22 21 21 20 20 19 17 18 18 22 26 24 23 24 24 23 21 19 16 14 14 13 13 13 13 11 11 12 9 10 11 12 13 12 10 10 11 12 11 13 12 10 12 11 9 7 6 6 5 6 7 10 10 13 19 19 15 14 13 15 20 26 33 39 41 39 41 39 39 50
22 23 23 23 23 22 22 21 21 21 20 20 21 21 22 22 22 22 22 22 23 23 23 20 21 25 26 26 26 24 24 24 24 24 22 22 21 20 17 16 15 14 14 12 12 12 11 13 13 13 16 14 12 13 13 12 11 12 12 11 9 8 7 7 6 6 6 7 9 12 9 12 18 18 14 13 13 15 21 29 34 39 44 42 38 34 37 49
23 23 23 23 23 23 23 23 22 22 22 22 22 21 21 21 21 21 21 22 21 22 21 20 26 30 29 28 26 23 22 22 24 25 25 24 23 22 21 20 18 16 15 14 13 14 15 15 12 12 16 14 13 14 13 14 13 11 8 5 2 5 5 5 7 7 7 8 11 13 9 12 17 16 13 13 13 16 22 30 33 39 47 44 36 31 35 48
22 22 22 23 24 24 24 24 24 23 23 23 22 22 22 21 21 21 21 21 21 21 17 18 25 25 27 30 25 22 21 22 24 25 25 24 21 21 21 21 19 17 16 15 15 17 17 14 11 12 14 13 13 11 10 13 12 7 4 1 1 5 6 6 7 7 6 7 11 14 12 13 15 12 11 13 13 16 24 30 33 39 46 43 36 34 40 49
23 23 25 26 27 27 27 26 25 24 23 21 20 20 20 19 20 19 20 20 20 21 20 20 22 22 25 27 24 25 24 22 23 24 26 24 20 20 20 20 19 19 18 16 17 18 16 14 12 14 13 10 9 6 5 7 8 6 5 3 4 6 5 4 5 6 5 6 11 16 15 13 11 9 10 12 12 17 26 30 34 40 45 45 40 38 43 50
24 25 26 27 28 28 29 29 27 25 23 22 21 21 20 20 19 18 18 18 18 19 21 21 21 23 24 24 25 28 25 21 22 24 26 23 21 22 21 20 20 21 20 17 18 17 16 16 15 15 14 11 10 7 6 7 6 5 4 4 5 5 3 3 4 6 5 6 10 17 19 14 9 6 8 10 11 18 27 29 33 41 44 45 45 43 47 52
23 24 24 25 26 28 28 28 27 26 24 23 23 23 23 21 19 17 15 14 15 19 22 22 22 25 24 22 25 26 24 24 22 22 23 19 21 25 24 22 21 21 19 17 18 16 16 19 17 17 17 14 13 11 9 8 7 5 3 4 5 4 4 5 5 6 7 9 11 16 22 17 9 6 7 8 11 20 26 28 33 40 44 45 48 49 50 53
22 23 23 24 26 27 26 26 25 25 24 22 22 21 22 21 18 19 17 16 20 24 24 22 23 26 23 21 21 21 23 26 23 21 19 17 20 25 25 24 22 23 23 22 21 19 18 22 22 19 17 14 13 11 9 8 7 5 4 5 6 6 7 6 6 8 9 12 14 17 24 22 11 8 8 7 12 22 27 30 36 42 44 46 50 52 51 52
21 22 24 25 26 26 26 26 25 25 24 23 21 20 20 20 18 20 20 21 24 24 22 22 22 23 21 21 21 19 20 23 23 22 20 17 20 25 25 22 22 26 27 26 26 24 23 28 26 19 15 12 10 8 6 6 6 5 6 7 7 8 10 8 8 10 10 13 16 18 24 25 14 8 9 7 12 24 29 34 40 43 44 46 50 52 51 52
20 23 25 25 25 25 25 25 24 23 22 22 22 21 22 22 20 20 19 20 20 19 20 21 21 21 20 20 21 20 19 19 21 23 22 18 19 25 24 23 27 29 28 26 27 26 28 31 27 21 17 13 10 8 5 5 5 5 6 6 5 9 12 10 9 12 12 13 15 17 23 24 13 9 9 8 14 26 30 33 39 44 44 45 50 50 50 53
20 22 23 23 22 21 21 21 21 20 19 19 20 20 22 23 22 21 19 21 21 19 19 18 17 19 19 19 19 18 19 20 20 21 22 20 20 24 23 26 32 33 31 30 28 27 29 29 27 24 21 18 14 11 7 5 7 6 6 6 5 9 11 10 12 13 13 14 14 17 22 17 8 10 10 9 16 25 26 32 39 43 42 44 49 48 49 53
20 21 19 18 17 17 18 18 17 17 16 15 16 17 19 21 21 21 21 23 23 22 21 19 16 16 17 20 20 18 20 22 23 22 21 19 21 23 24 28 31 32 33 32 29 31 31 28 27 26 25 25 21 17 13 9 8 7 7 7 8 10 10 11 13 14 15 14 13 19 22 14 8 11 9 8 16 21 27 37 41 41 41 43 48 49 50 52
19 17 15 14 14 14 14 14 13 11 10 10 11 11 13 14 14 15 18 21 23 23 23 22 20 17 14 16 19 21 21 21 23 24 22 20 20 22 25 26 28 30 30 28 29 32 31 27 27 27 28 28 25 23 20 14 9 8 8 8 9 9 10 11 11 13 14 11 13 18 15 12 12 9 7 7 12 15 28 41 41 41 43 44 47 48 50 51
15 13 11 12 12 11 10 9 8 7 6 5 4 3 4 4 3 6 8 13 20 23 22 22 23 21 16 13 14 16 19 21 21 21 21 21 21 22 25 26 26 27 26 25 28 30 28 26 26 28 28 27 25 24 23 18 12 10 10 9 8 8 10 9 9 13 11 9 15 15 10 12 13 6 9 7 8 13 30 42 42 44 46 46 47 48 50 51
11 9 9 9 9 8 8 8 7 7 6 5 4 4 3 2 2 4 2 4 13 19 20 21 23 21 20 18 15 13 14 17 18 19 18 18 20 23 26 27 26 26 24 24 28 27 23 23 24 27 26 24 25 25 24 21 16 14 13 10 7 8 9 8 10 12 11 13 14 9 10 15 10 8 10 9 11 20 34 43 45 47 47 48 49 48 50 52
6 5 6 8 9 9 8 8 7 7 7 6 6 6 6 7 6 5 5 3 8 14 14 17 20 20 20 20 19 18 16 14 14 15 16 16 19 22 24 25 25 26 24 24 27 25 22 23 24 24 23 23 25 26 26 23 20 18 14 11 10 10 10 10 10 10 10 12 9 6 12 14 11 11 8 9 18 26 35 43 46 48 49 49 50 50 51 52
2 3 6 8 8 8 8 8 7 7 8 8 8 7 6 6 5 6 7 5 7 11 12 12 15 16 17 18 20 20 19 17 15 15 15 15 17 19 21 23 23 23 23 25 26 24 22 24 23 23 24 23 22 23 25 24 21 18 15 12 12 13 13 13 12 10 8 7 7 8 14 13 11 10 8 15 26 29 35 43 47 49 50 49 50 51 52 53
2 4 6 6 5 6 7 8 8 9 9 9 8 8 7 6 5 5 5 5 7 10 10 10 12 13 14 15 19 20 20 20 18 17 17 15 15 15 16 18 19 19 21 21 22 22 23 23 23 24 24 22 20 19 23 25 22 19 17 13 11 14 15 15 15 11 6 5 5 8 16 15 6 6 15 25 28 28 35 45 48 50 49 49 51 52 52 54
3 4 5 5 5 7 7 7 8 8 7 7 6 5 6 6 6 6 5 5 7 7 7 8 10 11 12 14 17 18 18 19 18 17 17 16 14 13 13 13 13 14 17 16 15 17 21 22 23 23 23 22 21 19 21 23 24 21 18 15 13 13 11 12 11 5 3 3 6 13 22 17 5 10 22 27 26 30 38 47 49 49 49 49 52 54 53 54
4 5 5 5 6 6 6 6 7 7 6 6 5 3 4 6 8 7 5 3 4 6 7 7 7 8 11 14 17 17 17 19 18 18 19 18 16 18 19 17 13 12 14 15 11 11 15 19 21 21 22 23 22 22 20 19 24 24 19 18 14 8 7 5 3 3 3 6 12 20 22 14 10 16 24 27 29 33 41 48 48 48 48 49 53 55 52 52
5 5 4 5 5 4 5 6 6 7 6 6 6 4 7 9 8 6 5 3 4 6 8 8 8 7 7 10 14 16 17 19 19 19 19 19 19 22 22 20 18 14 12 14 12 10 11 14 18 19 20 22 23 25 22 17 23 25 20 18 12 5 4 3 3 5 5 10 19 20 14 11 13 20 27 30 29 34 44 48 47 48 48 49 55 55 50 50
5 5 4 5 5 5 5 6 6 7 6 6 6 6 12 14 9 8 9 8 8 9 9 10 9 8 8 8 10 11 13 15 17 18 18 18 21 23 21 20 20 16 13 12 12 12 9 10 16 18 18 20 21 24 23 19 20 23 21 14 9 6 4 2 5 4 6 16 20 13 6 10 18 24 27 26 28 38 45 45 46 49 49 51 56 54 48 49
5 5 5 5 6 6 6 6 7 7 6 6 5 6 12 13 8 9 10 9 9 9 9 9 9 9 10 9 9 9 9 10 12 14 17 19 22 22 21 21 20 18 16 13 11 10 7 9 16 17 16 18 19 20 23 21 18 19 21 16 9 7 5 5 8 9 13 16 12 10 10 17 24 24 20 23 33 41 41 42 46 49 50 52 56 53 48 49
5 5 5 6 6 7 7 7 7 6 6 6 6 8 12 11 9 8 7 7 7 6 5 6 7 8 9 9 9 9 9 10 10 11 13 17 21 21 20 20 20 19 19 16 15 12 6 6 15 16 14 16 17 19 21 21 19 18 21 20 13 9 9 9 8 10 12 8 7 14 18 25 26 18 17 28 37 38 38 44 47 48 50 51 53 53 48 49
4 4 5 6 6 5 5 6 5 6 6 5 7 11 13 12 11 10 9 8 7 6 6 7 7 8 8 9 11 9 8 9 9 12 13 13 15 18 19 18 19 19 19 17 17 17 11 7 13 16 14 14 15 17 19 20 20 18 19 21 15 11 13 11 7 7 6 4 8 14 20 27 22 14 23 33 34 37 43 47 48 49 49 47 50 50 46 48
4 4 4 5 5 5 4 4 4 4 5 5 8 13 13 12 11 11 10 9 8 8 8 8 9 9 8 9 10 10 10 10 10 12 14 12 12 16 18 17 18 18 18 17 16 17 15 9 11 14 14 12 12 15 17 17 19 17 17 20 17 9 10 12 7 4 4 3 6 13 21 23 16 17 29 32 33 41 45 46 48 48 46 43 45 46 44 48
3 4 4 4 5 5 4 5 4 4 4 5 8 11 12 11 11 10 10 9 9 8 8 9 9 9 9 9 9 10 11 12 12 12 12 11 11 14 17 16 17 16 16 17 15 16 16 13 12 13 13 12 11 13 14 15 17 17 15 18 18 10 8 10 5 4 5 3 4 12 17 17 18 23 28 31 38 43 43 47 48 46 44 41 42 44 45 49
3 3 4 4 4 4 4 3 3 3 3 5 7 10 10 10 10 10 10 9 9 9 9 9 8 8 8 9 9 10 11 11 12 12 12 12 11 13 15 15 15 15 15 15 15 14 15 15 15 14 12 11 11 12 14 15 17 19 17 15 16 14 11 8 6 5 4 3 3 6 9 18 25 23 24 34 41 41 43 47 46 45 43 41 44 46 44 48
4 4 3 4 5 4 3 3 2 2 3 6 8 9 10 10 10 10 10 9 9 10 10 9 8 8 8 7 8 9 10 10 11 12 12 12 11 11 13 14 15 15 14 15 15 14 11 13 17 15 12 11 12 12 13 15 18 20 19 16 15 14 11 6 4 6 7 7 7 5 9 21 26 20 27 38 38 39 44 45 44 45 41 42 47 46 43 48
4 4 4 3 4 3 3 2 3 3 3 5 7 7 8 8 8 9 8 8 9 9 9 8 8 8 8 8 7 7 8 10 11 11 11 12 12 11 12 13 14 15 15 15 16 15 10 11 17 16 11 10 10 10 11 15 18 20 18 15 15 12 9 4 3 11 16 13 12 10 11 18 24 23 32 38 35 39 42 41 41 42 40 43 47 43 42 48
4 4 4 3 3 2 2 1 2 2 2 3 5 6 7 7 7 7 7 8 8 8 8 7 8 8 8 8 8 8 8 9 10 11 11 11 11 11 11 12 12 13 15 14 16 16 10 10 17 16 12 11 9 8 10 13 18 20 19 17 16 14 12 9 8 13 17 15 12 7 8 18 29 30 34 36 35 38 39 38 39 40 41 43 42 40 43 49
6 5 4 3 2 1 1 2 1 1 2 3 4 5 5 6 6 6 7 7 7 7 7 7 7 7 7 8 8 9 9 9 10 10 10 10 11 11 10 11 11 12 14 15 16 17 12 12 17 15 12 12 10 8 10 15 19 21 21 19 17 17 16 14 12 11 12 13 11 4 10 26 36 35 36 37 35 36 36 36 39 41 41 40 40 41 45 48
7 6 5 3 1 1 2 3 2 2 1 2 4 4 4 5 5 5 5 6 6 6 5 6 6 6 6 7 7 9 9 9 10 10 10 11 10 11 11 11 11 12 14 15 16 17 16 16 15 12 8 6 8 11 15 20 22 20 20 19 18 17 17 16 14 10 9 12 15 13 19 34 40 37 39 40 37 37 38 39 43 45 41 40 41 43 45 48
8 7 5 3 1 1 0 1 2 2 1 2 3 3 3 4 4 4 4 4 4 5 5 5 5 5 5 6 7 8 8 9 10 10 11 11 11 11 11 11 11 12 13 15 16 17 18 18 16 15 14 12 15 17 15 18 20 19 17 17 18 17 16 17 15 14 14 18 24 24 24 34 39 39 40 41 38 39 41 43 46 46 43 43 44 43 44 47
8 7 6 4 2 2 1 1 2 2 2 2 2 2 3 3 3 2 3 3 3 3 3 3 4 4 5 6 6 7 8 9 10 11 11 11 12 12 11 12 11 11 13 15 15 16 18 18 17 19 21 20 19 17 13 15 19 20 16 16 18 17 17 17 17 19 19 19 24 29 28 32 37 39 39 39 37 39 43 44 45 44 43 45 44 42 44 46
8 7 7 5 3 2 1 1 2 2 2 2 1 1 1 2 2 2 2 2 2 3 3 3 4 4 5 6 6 8 9 9 10 11 11 12 13 12 12 12 11 10 13 14 15 17 17 17 18 21 23 20 17 15 14 17 22 21 16 15 16 18 18 19 19 20 20 21 26 32 33 33 35 36 37 38 37 39 41 43 45 45 44 45 43 42 45 46
7 7 7 6 4 2 0 1 2 2 2 2 1 1 0 0 1 1 1 2 2 3 3 4 5 5 6 6 7 9 9 10 10 11 12 12 12 13 13 12 11 12 12 13 15 16 16 17 19 22 25 20 14 15 18 21 25 23 16 14 15 18 19 21 21 20 21 25 30 32 33 34 34 34 37 39 37 39 41 43 45 46 46 45 43 43 46 45
6 6 6 6 4 2 1 2 3 3 3 3 3 2 2 2 2 2 2 2 3 3 4 5 5 6 7 7 8 8 10 11 11 12 13 13 13 13 13 12 12 13 12 13 16 16 17 19 19 22 27 22 16 19 22 22 26 24 15 13 15 17 20 22 22 20 22 27 30 30 33 36 35 34 37 39 39 41 43 45 47 47 46 45 43 44 45 44
5 4 4 5 3 1 1 2 3 4 4 4 4 4 4 3 3 4 4 4 4 5 5 6 6 7 8 8 8 9 10 11 11 12 13 14 14 14 13 14 14 13 13 13 15 17 19 21 21 23 26 24 23 24 24 25 28 21 11 11 15 17 19 22 23 23 25 28 30 30 33 36 37 37 38 40 41 43 44 46 48 48 46 44 44 45 45 43
5 3 2 2 2 1 2 3 4 5 5 6 6 6 6 6 6 6 6 5 6 6 6 7 7 8 8 9 9 10 10 11 12 12 13 14 15 15 15 15 14 14 15 14 15 18 19 22 24 23 23 27 27 24 25 26 20 11 11 19 22 19 18 21 25 27 27 27 29 31 32 36 38 38 40 42 43 44 45 47 48 48 46 44 45 45 44 43
Wind_Direction
109 110 111 111 113 117 120 123 125 125 123 119 115 110 101 87 74 67 65 65 67 72 74 77 76 75 74 72 70 68 68 75 69 60 72 76 80 88 101 114 123 127 125 126 128 129 123 116 110 107 107 108 115 122 130 137 126 108 126 142 124 132 130 137 183 199 199 171 166 153 125 87 27 24 14 13 5 6 5 360 359 360 353 344 336 330 328 326
110 111 112 114 116 117 118 117 114 110 105 101 98 96 92 87 84 78 75 75 80 85 84 82 82 83 81 77 75 72 69 71 71 72 75 66 66 77 87 100 110 117 118 123 125 128 122 115 114 114 115 115 116 124 134 145 141 126 159 172 144 150 145 152 187 194 191 178 168 146 125 85 6 5 11 5 355 1 355 347 351 349 339 332 329 330 331 330
108 110 111 113 113 111 109 105 101 96 92 91 92 94 94 93 91 86 85 84 88 94 92 89 87 87 84 79 74 72 72 74 73 73 68 60 60 73 82 89 95 101 103 111 114 111 109 108 115 118 114 116 120 129 135 145 159 145 170 172 144 160 158 158 178 168 170 170 150 133 108 27 360 358 1 360 353 352 339 336 343 339 334 333 333 332 330 327
107 108 108 108 106 104 101 98 95 92 89 89 93 96 96 96 96 95 94 89 87 89 92 89 83 80 76 72 70 71 74 72 69 70 69 65 62 68 82 88 89 93 93 98 105 101 98 100 106 107 106 114 115 118 125 133 143 131 157 146 131 149 153 148 157 145 142 132 127 93 46 6 357 357 356 359 352 345 343 344 342 337 334 331 328 326 324 323
105 105 105 103 102 101 100 99 96 93 89 89 92 96 98 99 100 99 95 89 85 83 83 81 73 69 65 65 65 61 67 61 57 66 72 71 67 66 77 85 88 90 89 92 96 96 96 101 103 104 112 123 117 115 122 127 99 93 126 123 120 131 135 130 132 125 110 103 100 42 33 6 357 358 351 351 349 345 345 342 337 335 333 330 328 327 327 331
101 102 102 101 102 102 101 99 97 95 93 92 94 96 98 100 99 95 90 87 85 82 80 78 73 70 68 68 65 57 64 60 53 60 65 68 68 65 67 73 82 87 89 93 93 96 100 98 97 100 103 102 107 107 107 111 98 71 102 109 109 113 113 108 108 104 90 74 51 24 17 6 355 347 340 343 345 342 340 338 337 336 334 333 333 335 339 344
99 100 101 101 102 102 101 100 98 97 96 95 94 95 97 98 96 92 89 87 84 81 77 75 72 68 65 67 65 60 65 62 55 55 58 64 65 62 62 62 70 82 86 85 85 91 91 86 86 87 80 78 95 94 78 84 80 49 84 97 91 93 89 86 92 89 77 61 39 20 9 5 355 347 342 343 342 339 339 339 339 336 336 338 341 346 350 351
98 99 100 101 101 102 101 99 97 96 94 93 92 94 95 95 94 89 87 85 82 77 73 70 64 56 50 59 62 58 61 59 55 54 55 60 61 62 62 59 62 72 77 75 72 74 77 76 70 65 61 65 84 90 78 71 70 56 71 83 75 79 74 71 81 69 58 45 21 11 3 359 352 347 343 344 341 339 342 341 341 341 343 346 349 353 352 348
98 98 99 99 99 98 97 96 95 94 94 94 93 92 92 91 89 86 84 82 80 76 71 65 58 49 38 46 55 53 55 53 49 49 49 54 57 59 59 56 57 62 67 68 67 67 69 69 55 47 45 56 74 81 70 56 70 66 62 72 67 67 64 61 66 46 37 17 0 4 0 348 345 346 345 347 344 341 347 348 347 347 348 350 350 350 348 345
95 94 94 94 94 94 95 96 95 96 95 93 91 89 88 86 83 82 80 79 78 75 69 61 54 52 46 49 62 58 52 47 44 45 45 51 53 53 55 56 56 56 60 60 61 64 63 59 48 43 44 54 66 69 63 56 72 69 54 64 64 57 55 53 52 36 24 3 360 7 355 340 343 346 345 349 348 346 351 351 348 348 349 348 347 348 346 349
92 93 93 94 95 96 97 97 95 94 92 90 89 87 85 83 81 79 77 75 73 70 70 66 56 54 56 67 77 66 54 48 48 50 53 57 57 61 66 65 60 56 57 57 58 60 58 51 36 33 43 63 69 70 70 62 66 66 49 50 59 54 48 50 47 27 18 13 8 357 345 340 347 346 344 352 351 349 352 351 349 349 348 345 344 343 346 356
94 95 96 96 96 95 94 92 91 89 88 87 85 84 83 81 79 76 74 73 72 72 72 69 61 61 74 84 75 63 54 51 52 53 55 58 63 75 76 71 67 61 61 61 63 62 55 54 51 55 66 72 75 76 75 68 63 62 51 48 59 51 41 47 39 21 22 23 5 347 338 332 345 347 345 352 349 348 352 350 349 348 347 344 343 339 347 1
95 96 95 95 93 91 90 87 86 85 84 84 84 84 82 80 79 77 76 75 74 73 70 69 71 74 79 78 67 58 54 51 52 55 57 61 68 76 78 76 70 64 67 68 71 66 58 67 71 75 75 69 76 84 79 73 64 60 54 43 43 34 28 33 27 24 20 11 344 340 335 317 338 350 347 347 345 347 350 349 349 351 351 347 347 347 352 359
93 92 91 90 89 88 87 85 84 83 83 84 83 82 80 79 78 77 78 78 76 74 71 73 77 72 70 68 62 56 54 49 50 54 59 64 67 74 77 76 70 65 71 77 80 76 73 78 76 82 84 74 75 81 77 71 61 53 49 41 25 356 3 17 21 19 0 356 335 335 333 304 328 349 346 341 342 344 348 349 349 354 357 354 355 358 353 353
90 89 87 87 86 85 84 83 84 84 84 83 82 81 80 79 79 79 80 79 78 76 71 70 70 68 69 66 60 57 56 54 54 53 57 59 61 68 72 73 72 70 74 81 89 88 82 79 77 88 93 87 81 77 68 62 54 41 40 56 27 328 355 20 19 8 346 345 338 340 335 303 323 344 342 336 335 339 348 349 348 354 360 358 358 357 347 349
87 86 87 86 85 83 82 82 82 83 84 83 83 81 80 80 80 78 76 75 75 75 71 67 68 71 72 67 63 67 67 66 64 59 61 61 61 67 72 77 78 79 82 85 92 90 84 83 85 87 89 91 88 82 70 60 53 35 19 55 36 15 25 25 11 3 350 344 347 350 338 313 322 337 335 329 327 339 349 348 347 354 359 359 357 352 348 350
87 89 89 88 86 83 81 81 81 83 83 84 84 82 80 79 77 75 76 75 74 74 72 69 73 77 74 70 71 73 71 69 69 67 67 67 71 76 79 84 86 87 85 85 88 89 92 95 92 87 85 83 79 87 106 84 69 47 26 27 38 34 24 353 353 4 0 351 357 359 347 324 321 327 323 319 322 342 350 345 346 352 355 356 353 348 349 351
90 91 91 89 87 84 82 80 80 81 82 84 83 80 76 72 71 72 74 74 75 79 75 71 77 78 73 72 70 66 66 69 69 70 68 66 75 81 82 86 89 88 85 85 88 91 97 95 91 89 86 79 74 85 118 113 92 67 38 25 29 36 19 328 342 0 356 343 351 359 358 344 320 315 313 311 322 345 350 343 344 350 351 352 351 348 350 351
92 92 92 91 90 88 85 83 82 81 80 80 78 78 75 71 71 71 76 85 83 79 73 68 70 70 65 65 65 62 64 67 67 68 67 62 69 78 82 84 85 87 90 92 91 92 93 91 89 84 78 77 75 79 92 98 92 86 62 18 14 16 6 350 342 340 336 335 338 351 359 351 323 311 310 308 329 345 348 341 340 347 348 347 348 348 350 351
96 97 96 95 93 91 90 90 89 86 83 80 78 81 80 78 78 78 87 93 78 68 65 64 64 65 64 65 68 67 65 66 67 67 68 64 65 74 80 82 89 93 94 93 91 94 90 83 79 73 71 71 69 74 80 83 83 75 52 27 20 10 357 349 343 334 327 331 336 345 354 350 329 307 309 307 336 344 347 344 340 345 346 343 344 346 349 350
103 103 102 100 98 96 96 94 90 87 86 82 79 78 76 75 73 73 77 76 68 63 64 63 62 64 65 66 68 67 65 68 70 71 72 70 69 77 83 87 94 93 91 89 85 85 77 69 68 67 68 68 71 74 68 74 72 51 39 21 5 359 352 341 336 337 329 330 339 343 347 346 329 302 307 300 332 342 347 348 344 345 346 341 342 345 349 349
111 109 106 103 101 98 96 92 90 87 86 83 80 77 74 71 67 67 69 69 66 63 62 61 61 64 64 66 66 63 66 72 74 74 73 69 68 76 81 82 80 79 80 79 73 70 65 61 62 61 61 64 72 71 62 67 52 32 32 16 335 329 338 333 331 337 333 330 335 335 339 341 321 296 306 297 331 342 347 350 346 345 345 341 341 344 347 347
117 113 107 103 99 96 93 91 89 86 86 86 83 80 77 73 70 68 68 69 66 62 60 59 61 64 65 69 71 68 70 74 75 75 74 70 66 70 74 74 73 72 71 70 67 65 64 62 59 55 54 54 57 57 54 51 44 31 13 3 329 322 329 328 327 331 332 330 332 333 337 342 313 302 307 300 339 350 351 351 346 343 342 339 340 343 345 345
122 114 105 98 93 89 88 88 87 86 87 86 86 86 83 79 74 68 64 63 62 60 59 60 62 64 66 69 72 72 71 72 74 73 70 68 65 67 69 69 73 73 70 69 68 69 69 65 60 56 51 48 46 43 39 32 34 25 1 352 344 339 336 328 326 331 336 337 338 335 338 344 327 315 303 304 349 2 356 349 345 342 341 340 341 343 345 344
122 112 99 90 85 84 84 84 86 85 83 85 87 89 90 86 73 60 56 53 52 54 55 57 59 58 64 72 71 70 69 70 73 71 68 66 65 68 69 69 71 74 74 72 71 71 69 65 63 59 51 47 44 37 32 24 13 3 351 343 340 344 343 335 332 333 337 341 338 337 340 339 329 312 267 301 1 4 344 342 344 344 343 343 344 344 345 344
121 106 87 77 78 79 72 67 68 61 59 73 71 73 93 89 32 19 40 45 41 43 47 51 53 51 55 69 71 70 68 67 70 71 69 67 65 68 70 70 68 69 72 72 70 68 65 62 62 59 54 50 46 40 33 24 10 354 341 333 327 335 342 345 346 336 332 334 326 325 332 328 320 282 249 292 349 331 330 339 344 346 344 344 345 345 345 343
122 98 71 57 53 48 38 37 42 36 38 50 46 48 49 28 345 338 13 52 29 31 40 47 51 49 51 60 65 70 70 65 67 71 72 71 68 67 68 69 67 65 64 66 68 65 61 60 57 57 55 47 45 43 34 25 16 2 349 340 324 318 326 341 352 345 333 329 319 304 327 331 312 266 263 290 316 315 327 339 344 345 345 344 344 345 344 342
128 85 39 22 19 20 24 28 30 27 34 43 42 54 61 62 63 47 66 86 20 23 34 43 50 50 51 58 62 66 69 68 70 72 72 72 69 66 67 67 66 65 61 61 67 64 56 53 51 50 47 41 42 41 34 28 20 9 358 349 335 315 309 314 327 341 337 326 315 318 349 346 316 299 293 306 315 317 329 339 343 344 344 344 344 344 343 341
123 10 359 0 5 17 28 32 37 43 48 48 45 54 63 60 64 65 73 76 27 28 36 43 50 50 51 60 64 66 67 68 72 73 72 72 71 70 68 67 66 67 63 59 62 61 52 48 46 43 40 38 38 36 34 31 24 17 8 355 339 321 311 301 301 322 328 297 284 327 355 352 322 311 318 320 318 319 329 337 341 343 343 344 344 343 342 340
330 343 357 5 19 37 47 52 55 55 50 46 48 54 57 61 72 69 69 67 41 35 44 54 58 54 53 62 66 65 64 64 64 66 67 67 70 73 73 71 68 66 66 62 57 56 51 47 45 42 39 36 34 34 34 30 28 29 24 9 346 331 315 292 290 306 302 267 281 334 344 344 327 293 314 320 316 316 327 335 339 342 343 344 344 343 341 339
4 18 27 34 53 60 62 61 50 43 36 30 32 38 48 68 85 78 76 73 48 37 50 61 64 63 61 66 70 69 68 67 65 68 72 68 72 79 74 72 68 58 58 57 49 49 49 45 43 41 40 39 35 34 34 29 28 32 33 23 3 348 329 296 284 285 259 289 338 334 330 329 291 291 316 322 319 320 329 335 337 340 343 344 343 340 338 338
47 55 53 54 63 60 55 47 30 25 23 19 18 27 64 76 76 76 85 81 45 46 62 67 68 69 64 66 70 70 69 69 65 67 69 67 70 71 64 60 61 55 48 43 36 41 45 42 39 37 37 38 35 34 36 29 25 29 34 30 20 1 346 327 296 309 306 315 328 325 322 316 289 302 319 323 321 326 332 333 337 342 344 343 340 338 337 337
60 63 54 47 48 40 32 22 17 23 26 36 48 73 99 87 70 66 77 89 88 78 70 68 65 64 62 60 62 64 64 64 62 61 62 62 63 62 58 54 54 55 48 42 41 43 42 36 32 31 30 31 30 31 34 28 25 28 26 25 28 12 358 360 337 340 322 311 319 321 317 310 308 316 322 320 320 328 331 333 339 343 342 338 337 337 337 338
56 49 38 32 26 22 19 19 32 38 39 56 65 88 97 89 81 84 87 93 99 90 77 72 66 62 61 55 57 60 62 63 62 60 60 62 62 59 57 54 50 49 46 42 41 40 40 28 22 24 24 24 26 29 29 28 28 28 24 24 29 31 41 344 319 319 298 306 317 332 335 318 321 323 321 318 322 328 331 336 342 341 338 335 335 338 340 341
49 43 37 32 28 34 37 43 52 51 53 63 68 94 94 89 94 98 93 97 99 91 83 77 67 64 62 56 55 56 58 60 57 56 56 55 55 52 50 49 46 45 45 41 34 33 39 27 20 20 18 17 21 25 26 28 28 26 24 21 14 21 15 317 310 295 291 298 316 340 328 319 324 321 317 322 325 329 334 339 340 337 335 335 336 339 341 341
43 37 31 24 27 42 52 60 61 58 60 63 73 89 90 94 104 100 97 103 99 88 80 72 61 57 57 53 53 54 54 54 51 52 51 49 50 47 45 44 42 40 41 39 36 32 30 21 20 19 16 15 16 20 23 25 24 23 24 20 10 8 357 328 309 302 293 279 314 328 318 322 329 323 321 327 327 331 336 337 336 334 333 333 335 339 341 340
28 20 23 20 23 37 48 55 57 56 59 68 87 90 89 94 97 93 93 94 91 83 72 69 66 60 57 54 51 47 46 48 48 50 49 46 43 41 40 40 37 35 35 35 34 29 24 20 18 15 12 14 12 13 19 22 20 20 22 20 13 12 6 346 311 307 308 279 311 322 321 325 327 322 326 327 328 335 336 334 334 333 331 332 333 338 341 339
15 9 13 14 20 29 36 42 40 48 59 74 92 93 93 94 91 89 89 86 87 86 77 76 74 67 64 60 54 49 48 49 48 50 50 46 39 36 37 36 33 31 31 31 29 26 25 22 16 9 5 8 6 5 11 14 16 17 18 19 20 15 355 343 322 296 316 308 306 321 327 326 318 317 325 329 334 337 333 331 333 332 330 330 331 336 340 337
13 7 6 6 15 21 30 44 51 60 69 78 91 95 96 94 91 87 84 83 85 83 80 78 75 71 65 60 55 51 50 49 48 50 51 46 40 36 33 31 30 27 25 25 23 23 25 19 9 3 359 359 355 355 359 360 6 9 9 15 20 16 342 332 312 272 305 312 306 322 324 323 324 325 327 333 336 333 330 331 332 330 330 329 329 334 336 336
14 11 10 3 5 11 23 39 49 56 69 84 93 97 99 96 92 88 84 84 83 82 81 75 72 74 65 57 54 48 47 47 45 48 49 45 40 34 31 28 26 24 22 21 17 14 19 15 2 358 1 355 340 341 348 347 354 359 0 4 7 9 0 334 295 277 292 276 303 326 309 317 332 334 330 334 333 329 330 331 330 330 331 329 330 333 334 337
13 20 24 8 358 4 20 35 55 61 70 91 96 96 99 96 90 89 86 83 81 79 78 73 68 68 59 54 51 45 45 44 40 41 40 37 33 27 24 19 18 20 18 18 15 10 9 5 357 356 1 351 333 333 340 340 346 351 352 350 349 357 2 344 298 297 300 289 298 288 278 315 335 337 329 333 333 329 331 331 330 331 331 328 329 331 334 338
12 26 36 27 11 11 24 40 71 72 67 89 97 96 97 95 91 90 85 82 80 76 73 70 64 61 57 52 46 41 42 38 36 36 32 29 25 18 13 10 11 12 10 12 12 6 360 355 353 353 357 353 336 326 327 333 341 343 343 339 335 340 346 337 297 308 312 308 299 273 264 312 334 332 329 334 332 329 331 331 330 330 328 326 327 330 336 339
21 26 30 40 38 30 36 49 76 84 78 92 100 100 99 95 93 89 84 81 77 74 73 68 61 58 54 49 43 40 38 33 32 30 25 23 17 10 5 1 0 2 3 4 4 4 2 350 347 347 349 347 332 317 316 324 332 332 332 334 330 330 330 320 306 306 307 306 305 276 257 312 329 331 332 335 331 327 329 328 328 329 329 328 328 333 338 339
29 26 18 27 33 12 65 88 83 98 115 115 111 107 103 100 96 89 86 83 78 76 73 64 61 57 49 46 41 35 32 29 25 22 20 17 10 5 358 353 353 352 353 356 358 2 4 353 347 345 346 347 344 338 321 319 325 324 324 329 328 327 322 315 314 309 299 306 316 272 264 310 330 338 335 335 333 330 330 329 330 332 331 328 329 334 338 338
33 33 20 13 2 358 110 115 109 106 132 138 124 115 106 102 100 94 88 84 79 76 70 60 58 51 43 39 33 30 28 22 17 14 13 9 2 359 353 347 345 344 347 351 353 355 355 353 351 345 341 335 322 318 313 313 318 319 319 322 322 322 316 311 311 297 283 300 302 283 284 311 333 343 338 339 339 333 333 334 334 335 332 328 329 332 335 337
33 35 26 15 348 325 263 181 158 136 142 150 132 122 115 105 101 99 90 85 79 71 66 58 49 42 37 29 22 21 18 14 11 7 5 2 356 352 348 343 339 339 342 346 347 348 348 350 348 335 329 323 312 310 307 303 310 318 319 316 314 314 309 306 300 288 292 297 298 304 306 311 329 341 340 341 341 334 333 332 332 334 331 328 328 330 333 338
30 34 30 28 12 351 344 212 186 165 162 162 140 124 121 110 100 98 83 77 75 63 55 42 33 30 24 14 11 8 4 5 4 360 358 355 349 346 342 338 335 335 339 340 342 343 341 343 342 331 330 333 323 315 309 302 311 319 314 305 307 306 302 300 297 301 306 293 296 316 319 311 325 340 339 340 340 334 332 330 330 332 329 326 328 330 334 340
27 32 33 36 28 11 19 189 197 194 194 185 165 142 127 107 95 88 73 63 53 42 31 16 12 11 3 359 356 354 352 352 354 354 351 347 344 343 339 335 332 333 335 334 335 336 334 336 335 328 332 339 328 318 320 318 319 318 303 292 298 300 300 302 304 309 304 285 297 318 318 313 328 338 337 338 337 331 330 328 329 330 328 327 330 333 337 341
22 29 30 32 35 31 325 223 207 207 215 222 225 225 233 38 48 33 22 20 14 12 7 360 358 354 350 348 344 344 343 341 341 343 343 341 339 338 336 333 329 328 328 327 328 330 327 328 331 327 332 344 340 329 331 326 321 317 298 279 287 296 302 305 308 313 305 298 310 318 313 319 334 337 334 336 333 328 328 328 330 332 331 331 333 335 339 341
9 22 25 20 22 31 334 253 227 226 232 241 253 259 277 298 317 332 336 338 343 348 349 347 346 342 340 338 336 336 336 334 331 330 333 335 333 332 331 328 325 321 321 322 323 324 322 324 328 326 329 343 352 338 333 326 321 316 294 272 280 289 299 306 311 316 312 312 320 317 311 324 339 337 331 333 332 330 331 333 335 335 334 334 335 337 340 342
344 3 17 13 11 15 328 276 252 248 245 250 261 264 268 279 292 304 309 313 319 327 332 334 334 332 331 331 329 329 329 330 327 325 326 327 326 325 322 323 321 316 316 320 319 322 323 321 326 327 325 334 345 339 333 327 320 313 297 292 295 289 296 310 315 318 319 319 320 314 313 326 338 336 332 334 335 334 335 337 338 337 336 336 336 338 341 342
311 319 343 355 349 330 307 284 272 267 260 259 264 264 266 271 278 288 294 297 303 311 317 320 323 323 323 323 323 323 324 326 325 322 321 320 321 320 318 320 320 312 311 316 318 322 323 322 328 328 319 326 337 337 332 328 321 313 316 317 313 301 297 308 316 322 327 324 316 313 319 330 335 333 332 334 335 335 337 338 338 337 337 337 337 340 342 342
Height
3144 3144 3145 3145 3146 3146 3147 3147 3147 3148 3148 3148 3148 3149 3149 3149 3149 3149 3149 3149 3148 3148 3148 3148 3147 3147 3146 3146 3146 3145 3146 3142 3141 3144 3144 3143 3143 3143 3143 3143 3144 3144 3144 3144 3144 3144 3145 3145 3145 3146 3146 3147 3148 3148 3149 3149 3149 3150 3151 3150 3150 3152 3153 3154 3154 3153 3153 3153 3154 3154 3155 3155 3155 3155 3154 3154 3154 3153 3153 3152 3151 3150 3149 3148 3147 3146 3144 3141
3145 3145 3146 3146 3147 3147 3148 3148 3149 3149 3149 3149 3149 3149 3149 3150 3150 3150 3150 3150 3150 3150 3149 3149 3148 3148 3147 3147 3147 3146 3146 3143 3144 3146 3144 3144 3144 3144 3144 3144 3144 3144 3144 3145 3145 3145 3145 3145 3146 3146 3147 3147 3148 3149 3149 3150 3150 3149 3150 3150 3150 3152 3153 3153 3153 3153 3153 3154 3154 3154 3155 3155 3155 3155 3154 3154 3154 3153 3153 3152 3152 3151 3150 3149 3147 3145 3142 3140
3147 3147 3148 3148 3148 3149 3149 3150 3150 3150 3150 3150 3150 3150 3150 3151 3151 3151 3151 3151 3151 3150 3150 3150 3150 3149 3149 3148 3148 3147 3147 3146 3146 3146 3145 3145 3145 3144 3145 3145 3145 3145 3145 3146 3146 3146 3145 3146 3146 3147 3147 3148 3148 3149 3149 3150 3150 3150 3150 3150 3151 3152 3153 3153 3153 3153 3154 3154 3155 3155 3155 3155 3155 3155 3155 3155 3154 3154 3154 3153 3152 3151 3149 3148 3146 3143 3141 3139
3149 3149 3150 3150 3150 3151 3151 3151 3151 3152 3151 3151 3151 3151 3152 3152 3152 3152 3152 3152 3152 3151 3151 3151 3151 3150 3150 3149 3149 3149 3148 3147 3148 3147 3147 3147 3146 3146 3146 3146 3146 3146 3146 3147 3146 3146 3146 3146 3147 3147 3148 3148 3149 3150 3150 3151 3151 3151 3151 3152 3152 3153 3154 3154 3154 3154 3155 3155 3156 3156 3156 3156 3156 3156 3155 3155 3155 3154 3154 3153 3151 3150 3148 3147 3145 3143 3141 3139
3151 3151 3151 3152 3152 3152 3153 3153 3153 3153 3153 3153 3153 3153 3153 3154 3154 3154 3154 3154 3153 3153 3152 3152 3152 3151 3151 3150 3150 3150 3149 3149 3149 3149 3149 3148 3147 3147 3147 3146 3147 3147 3147 3147 3147 3147 3147 3147 3147 3148 3148 3149 3150 3150 3151 3151 3152 3152 3152 3153 3153 3154 3155 3155 3155 3155 3156 3156 3157 3157 3157 3157 3157 3156 3156 3156 3155 3155 3154 3152 3151 3149 3148 3146 3145 3142 3140 3136
3152 3153 3153 3153 3154 3154 3154 3154 3155 3155 3155 3155 3155 3155 3155 3156 3156 3156 3155 3155 3155 3154 3154 3153 3153 3153 3152 3151 3151 3151 3150 3150 3150 3150 3149 3149 3148 3147 3147 3147 3147 3147 3147 3148 3147 3147 3147 3147 3147 3148 3149 3149 3150 3151 3151 3152 3152 3153 3153 3154 3154 3155 3156 3156 3156 3157 3157 3157 3157 3158 3158 3158 3157 3157 3157 3156 3155 3155 3153 3152 3150 3149 3148 3146 3143 3140 3136 3131
3154 3154 3155 3155 3155 3156 3156 3156 3156 3156 3157 3157 3157 3157 3157 3158 3157 3157 3157 3157 3156 3156 3156 3155 3154 3154 3154 3153 3152 3152 3151 3151 3151 3150 3150 3149 3148 3148 3147 3147 3147 3147 3148 3148 3148 3148 3148 3148 3148 3149 3149 3150 3151 3152 3153 3153 3153 3153 3154 3154 3155 3156 3156 3156 3157 3158 3158 3158 3158 3158 3158 3158 3158 3158 3157 3156 3156 3155 3153 3152 3151 3149 3147 3144 3141 3137 3132 3128
3156 3157 3157 3157 3157 3158 3158 3158 3158 3159 3159 3159 3159 3159 3159 3159 3159 3159 3158 3158 3158 3158 3157 3157 3156 3156 3156 3155 3154 3153 3152 3151 3151 3150 3150 3149 3149 3148 3148 3148 3148 3148 3148 3148 3148 3148 3148 3149 3149 3149 3150 3151 3152 3153 3153 3154 3154 3154 3154 3155 3156 3156 3157 3157 3158 3158 3158 3159 3159 3159 3159 3159 3159 3158 3157 3157 3156 3154 3153 3152 3151 3148 3145 3142 3138 3135 3132 3129
3159 3159 3159 3159 3160 3160 3160 3160 3161 3161 3161 3161 3161 3161 3161 3161 3160 3160 3160 3160 3159 3159 3159 3158 3157 3157 3157 3156 3155 3154 3153 3152 3151 3150 3150 3149 3149 3148 3148 3148 3148 3148 3148 3148 3149 3149 3149 3149 3150 3150 3151 3152 3153 3153 3154 3154 3155 3155 3155 3156 3157 3157 3157 3158 3159 3159 3159 3160 3160 3159 3159 3159 3159 3158 3157 3156 3155 3154 3153 3151 3149 3147 3144 3141 3138 3135 3132 3129
3161 3162 3162 3162 3162 3162 3163 3163 3163 3163 3163 3163 3163 3163 3163 3163 3162 3162 3162 3161 3161 3160 3160 3159 3159 3158 3157 3157 3156 3154 3154 3153 3152 3151 3151 3150 3150 3149 3149 3149 3149 3148 3148 3149 3149 3150 3150 3151 3151 3152 3152 3153 3153 3154 3155 3155 3155 3156 3157 3157 3158 3158 3158 3159 3159 3160 3160 3160 3160 3159 3159 3159 3159 3158 3157 3156 3155 3154 3152 3150 3148 3146 3143 3141 3138 3136 3132 3127
3164 3164 3164 3165 3165 3165 3165 3165 3165 3165 3165 3165 3165 3165 3165 3164 3164 3164 3163 3163 3163 3162 3161 3161 3161 3160 3159 3159 3156 3155 3155 3155 3154 3153 3152 3151 3151 3150 3150 3150 3150 3150 3150 3150 3151 3151 3152 3152 3153 3153 3153 3154 3154 3155 3156 3156 3157 3157 3158 3158 3159 3159 3159 3160 3160 3160 3161 3160 3160 3160 3159 3159 3158 3157 3156 3155 3154 3153 3151 3150 3148 3145 3143 3140 3137 3134 3131 3124
3167 3167 3167 3167 3167 3167 3167 3167 3167 3167 3167 3167 3167 3167 3166 3166 3166 3165 3165 3165 3164 3164 3163 3163 3162 3162 3162 3160 3156 3156 3157 3157 3155 3154 3153 3153 3152 3152 3152 3152 3151 3152 3152 3152 3152 3153 3153 3154 3154 3154 3154 3155 3155 3156 3157 3158 3158 3158 3159 3159 3159 3160 3160 3160 3161 3161 3161 3161 3160 3160 3158 3157 3157 3157 3156 3155 3153 3152 3150 3149 3147 3145 3142 3139 3135 3131 3128 3123
3169 3169 3169 3169 3169 3169 3169 3169 3169 3169 3169 3169 3169 3169 3168 3168 3168 3167 3167 3167 3166 3166 3165 3165 3165 3164 3163 3159 3158 3159 3159 3158 3157 3156 3156 3155 3154 3153 3153 3153 3153 3154 3154 3154 3154 3154 3155 3155 3155 3155 3155 3156 3157 3158 3158 3159 3160 3160 3160 3160 3160 3161 3161 3161 3162 3161 3161 3161 3161 3160 3159 3157 3156 3156 3155 3154 3153 3151 3150 3148 3146 3144 3141 3137 3132 3128 3125 3122
3171 3171 3171 3171 3170 3170 3170 3170 3171 3171 3171 3171 3171 3171 3170 3170 3170 3169 3169 3169 3168 3168 3167 3168 3167 3164 3162 3160 3161 3162 3161 3160 3159 3159 3158 3157 3156 3156 3156 3155 3155 3155 3155 3156 3155 3156 3156 3156 3156 3156 3156 3158 3159 3159 3160 3161 3161 3161 3161 3161 3161 3162 3162 3162 3162 3162 3161 3161 3161 3160 3159 3157 3156 3156 3155 3153 3152 3151 3149 3147 3145 3143 3139 3134 3131 3128 3125 3122
3173 3173 3173 3173 3172 3172 3172 3172 3172 3172 3173 3173 3173 3173 3172 3172 3172 3172 3172 3171 3171 3170 3170 3171 3167 3165 3164 3163 3164 3164 3163 3163 3161 3160 3159 3158 3159 3158 3157 3157 3157 3157 3157 3157 3157 3157 3157 3158 3159 3158 3158 3160 3161 3161 3161 3162 3162 3162 3163 3163 3164 3163 3163 3163 3162 3162 3162 3161 3160 3159 3159 3157 3155 3155 3154 3153 3151 3150 3149 3146 3144 3141 3137 3133 3130 3129 3126 3122
3175 3175 3175 3175 3174 3174 3174 3174 3174 3174 3175 3175 3175 3175 3175 3175 3174 3174 3174 3173 3173 3172 3173 3172 3169 3169 3168 3166 3168 3167 3167 3166 3164 3163 3162 3161 3161 3160 3160 3159 3159 3160 3160 3160 3159 3158 3159 3160 3161 3160 3160 3161 3162 3162 3162 3162 3163 3164 3164 3164 3165 3164 3163 3162 3162 3162 3162 3161 3160 3159 3158 3156 3155 3154 3154 3152 3151 3150 3148 3145 3143 3140 3136 3133 3130 3128 3124 3120
3177 3177 3177 3177 3177 3176 3176 3176 3176 3177 3177 3177 3177 3177 3177 3177 3177 3177 3176 3176 3175 3175 3175 3173 3172 3172 3170 3170 3172 3170 3169 3168 3167 3167 3165 3165 3165 3163 3163 3162 3162 3162 3162 3162 3161 3160 3161 3162 3162 3162 3162 3163 3162 3163 3163 3164 3166 3166 3166 3165 3165 3164 3163 3163 3162 3162 3162 3161 3160 3159 3158 3156 3154 3154 3153 3152 3150 3149 3147 3144 3141 3139 3136 3133 3130 3127 3123 3119
3180 3180 3180 3179 3179 3178 3178 3178 3179 3179 3180 3180 3180 3179 3180 3179 3179 3179 3179 3178 3178 3177 3176 3176 3176 3173 3172 3174 3173 3171 3171 3171 3170 3169 3167 3168 3168 3165 3165 3165 3164 3163 3163 3164 3163 3163 3163 3162 3163 3163 3163 3164 3164 3164 3164 3166 3167 3166 3166 3166 3165 3165 3164 3163 3163 3162 3162 3161 3160 3159 3157 3155 3154 3153 3152 3151 3150 3148 3146 3143 3140 3138 3135 3132 3128 3125 3121 3117
3182 3182 3182 3182 3181 3181 3181 3181 3182 3182 3183 3183 3183 3182 3181 3182 3182 3182 3181 3181 3181 3179 3177 3178 3178 3175 3175 3176 3174 3174 3175 3173 3172 3170 3169 3171 3170 3167 3167 3167 3166 3165 3165 3166 3165 3165 3165 3164 3164 3164 3164 3165 3165 3166 3166 3166 3167 3167 3167 3166 3166 3165 3164 3164 3163 3162 3162 3161 3159 3158 3156 3154 3153 3152 3151 3150 3149 3147 3145 3142 3139 3137 3134 3131 3127 3123 3119 3115
3184 3184 3184 3184 3184 3183 3184 3184 3185 3185 3185 3185 3186 3185 3184 3185 3185 3184 3184 3183 3182 3181 3181 3181 3180 3178 3179 3179 3177 3178 3177 3174 3174 3173 3172 3173 3172 3169 3168 3169 3169 3168 3167 3168 3167 3167 3167 3165 3165 3166 3166 3167 3167 3167 3168 3167 3168 3168 3167 3167 3166 3165 3165 3164 3163 3163 3162 3160 3159 3157 3155 3154 3153 3151 3150 3149 3148 3146 3144 3142 3138 3136 3133 3129 3126 3122 3118 3114
3187 3186 3186 3186 3186 3186 3187 3187 3187 3187 3187 3188 3188 3188 3187 3187 3187 3186 3186 3185 3184 3184 3184 3184 3183 3181 3181 3181 3180 3180 3179 3177 3177 3176 3175 3176 3175 3171 3171 3172 3172 3169 3168 3169 3168 3168 3167 3164 3165 3168 3168 3168 3168 3169 3169 3168 3168 3168 3167 3167 3166 3165 3165 3164 3163 3162 3161 3160 3158 3156 3154 3153 3152 3151 3149 3149 3148 3145 3144 3141 3137 3135 3132 3128 3125 3120 3116 3113
3189 3189 3189 3189 3189 3189 3189 3189 3189 3190 3190 3190 3190 3190 3189 3189 3189 3188 3188 3188 3187 3187 3187 3186 3185 3184 3184 3182 3181 3182 3181 3180 3179 3178 3178 3180 3178 3174 3174 3175 3172 3170 3169 3168 3168 3166 3165 3165 3168 3170 3170 3170 3170 3169 3169 3168 3168 3168 3167 3167 3166 3165 3165 3164 3163 3162 3161 3160 3158 3156 3154 3152 3151 3150 3149 3148 3147 3145 3143 3140 3136 3133 3131 3128 3123 3119 3115 3111
3192 3191 3191 3191 3191 3191 3191 3191 3192 3192 3192 3192 3192 3192 3192 3191 3191 3191 3191 3190 3189 3189 3188 3188 3187 3186 3186 3185 3184 3185 3184 3182 3181 3180 3180 3182 3180 3177 3177 3175 3172 3171 3170 3169 3168 3166 3166 3169 3171 3171 3172 3171 3170 3169 3169 3169 3168 3168 3168 3167 3167 3166 3165 3164 3162 3162 3161 3159 3158 3156 3154 3152 3150 3149 3148 3148 3146 3144 3141 3139 3136 3134 3131 3127 3123 3118 3115 3110
3194 3194 3194 3194 3194 3194 3194 3194 3194 3194 3194 3194 3194 3194 3193 3193 3193 3193 3193 3192 3191 3191 3190 3190 3189 3188 3188 3187 3186 3187 3185 3184 3183 3182 3182 3183 3182 3180 3179 3176 3174 3174 3172 3172 3171 3169 3170 3173 3174 3173 3173 3171 3170 3169 3169 3169 3168 3168 3168 3168 3167 3166 3165 3164 3162 3161 3160 3158 3157 3156 3153 3151 3150 3149 3147 3147 3146 3142 3140 3139 3137 3134 3131 3127 3121 3117 3114 3109
3196 3196 3196 3196 3196 3196 3196 3196 3196 3196 3196 3196 3196 3195 3195 3195 3195 3195 3195 3194 3193 3193 3192 3192 3190 3190 3190 3189 3188 3188 3187 3186 3185 3184 3185 3185 3184 3182 3180 3178 3177 3176 3175 3176 3174 3172 3174 3177 3176 3175 3173 3172 3171 3170 3169 3169 3169 3168 3168 3168 3167 3166 3165 3164 3163 3161 3160 3158 3157 3156 3153 3150 3148 3148 3147 3146 3145 3143 3141 3140 3137 3134 3130 3126 3120 3116 3112 3108
3198 3198 3198 3198 3198 3198 3198 3198 3197 3197 3197 3197 3197 3196 3196 3196 3195 3196 3195 3195 3195 3195 3194 3193 3192 3191 3191 3190 3190 3189 3188 3188 3187 3186 3187 3187 3186 3184 3181 3180 3179 3178 3179 3178 3176 3176 3178 3179 3178 3176 3175 3175 3174 3172 3171 3171 3170 3169 3168 3168 3167 3167 3166 3164 3163 3161 3160 3159 3158 3157 3156 3151 3148 3147 3146 3146 3145 3143 3142 3139 3135 3131 3127 3124 3119 3114 3110 3106
3200 3200 3200 3200 3200 3199 3199 3199 3198 3198 3198 3197 3197 3196 3196 3196 3196 3196 3195 3196 3198 3197 3197 3196 3194 3194 3194 3192 3191 3190 3190 3190 3190 3189 3189 3188 3187 3185 3183 3181 3181 3181 3181 3180 3178 3179 3182 3182 3180 3178 3177 3177 3175 3174 3173 3172 3171 3169 3168 3168 3167 3167 3166 3164 3163 3162 3161 3160 3158 3157 3157 3153 3149 3148 3146 3146 3145 3142 3140 3136 3133 3129 3125 3121 3117 3113 3109 3105
3201 3201 3201 3201 3201 3200 3200 3199 3199 3199 3198 3198 3197 3197 3197 3196 3197 3197 3195 3198 3202 3200 3199 3199 3197 3197 3196 3194 3193 3192 3191 3192 3192 3191 3190 3189 3188 3186 3185 3184 3183 3183 3184 3182 3180 3183 3184 3182 3181 3179 3179 3177 3176 3175 3175 3173 3172 3170 3169 3168 3167 3166 3165 3164 3163 3162 3161 3160 3158 3157 3156 3153 3151 3149 3147 3146 3144 3141 3138 3134 3131 3127 3123 3119 3115 3111 3107 3103
3203 3203 3203 3202 3202 3201 3201 3200 3200 3199 3199 3198 3198 3198 3198 3197 3198 3197 3196 3201 3204 3202 3201 3201 3200 3199 3199 3197 3196 3195 3194 3193 3193 3192 3191 3190 3189 3188 3187 3186 3186 3186 3186 3185 3183 3185 3185 3183 3182 3181 3179 3178 3178 3178 3177 3175 3173 3171 3169 3168 3167 3166 3165 3164 3163 3162 3161 3160 3159 3157 3156 3154 3151 3149 3147 3146 3143 3139 3136 3132 3130 3126 3121 3117 3113 3109 3105 3100
3204 3204 3204 3203 3203 3202 3202 3201 3201 3201 3200 3200 3199 3199 3198 3198 3198 3197 3199 3204 3205 3204 3204 3203 3202 3202 3201 3200 3198 3197 3196 3195 3194 3193 3192 3191 3190 3190 3189 3188 3189 3188 3187 3187 3187 3187 3186 3184 3184 3182 3181 3181 3180 3179 3178 3177 3175 3173 3170 3168 3166 3165 3164 3163 3162 3163 3162 3160 3158 3157 3156 3155 3153 3149 3147 3145 3142 3139 3136 3132 3128 3124 3120 3116 3111 3107 3103 3099
3205 3205 3205 3204 3204 3203 3203 3203 3202 3202 3201 3201 3200 3200 3200 3199 3198 3199 3203 3206 3206 3206 3205 3204 3204 3204 3203 3202 3200 3199 3199 3197 3197 3196 3194 3194 3192 3191 3190 3190 3190 3189 3189 3188 3189 3188 3187 3186 3185 3184 3184 3183 3182 3181 3179 3178 3176 3174 3172 3169 3166 3164 3163 3162 3162 3163 3163 3160 3158 3157 3156 3155 3153 3149 3146 3144 3141 3138 3135 3131 3127 3123 3118 3114 3109 3106 3102 3098
3206 3206 3206 3206 3205 3205 3205 3204 3204 3203 3202 3202 3201 3201 3200 3200 3200 3202 3205 3206 3206 3207 3206 3205 3205 3205 3204 3204 3202 3201 3201 3199 3199 3198 3196 3196 3194 3192 3191 3191 3191 3190 3190 3190 3189 3189 3188 3187 3186 3186 3185 3184 3183 3181 3179 3178 3177 3174 3172 3170 3168 3166 3165 3164 3163 3163 3163 3160 3159 3157 3155 3154 3152 3148 3145 3143 3140 3137 3133 3130 3126 3121 3116 3112 3109 3106 3101 3097
3207 3207 3207 3207 3207 3206 3206 3205 3205 3204 3204 3203 3202 3202 3201 3200 3203 3206 3206 3206 3207 3208 3207 3206 3206 3206 3205 3205 3204 3203 3202 3201 3200 3199 3198 3197 3196 3193 3193 3193 3192 3192 3192 3192 3190 3189 3188 3187 3187 3187 3186 3185 3183 3181 3180 3179 3177 3174 3172 3171 3171 3170 3170 3169 3166 3164 3164 3161 3158 3157 3156 3153 3150 3147 3145 3142 3139 3136 3132 3128 3123 3119 3115 3112 3109 3105 3100 3095
3209 3209 3209 3208 3208 3207 3207 3206 3206 3205 3205 3204 3204 3203 3202 3202 3206 3208 3207 3207 3208 3208 3208 3208 3207 3207 3206 3206 3205 3205 3204 3203 3202 3201 3200 3199 3197 3195 3195 3195 3194 3194 3193 3193 3191 3190 3189 3188 3188 3187 3186 3185 3184 3182 3181 3180 3178 3176 3174 3174 3174 3173 3174 3174 3170 3168 3166 3162 3158 3156 3155 3153 3149 3146 3144 3141 3139 3136 3131 3125 3121 3118 3116 3112 3107 3103 3099 3094
3210 3210 3210 3209 3209 3209 3208 3208 3207 3207 3206 3206 3205 3205 3204 3205 3208 3209 3208 3209 3209 3209 3209 3209 3208 3208 3208 3207 3207 3206 3205 3204 3204 3203 3202 3200 3198 3197 3197 3197 3196 3196 3194 3193 3192 3191 3190 3190 3189 3188 3187 3186 3185 3184 3182 3180 3178 3177 3176 3175 3174 3174 3174 3174 3172 3169 3166 3163 3159 3156 3155 3154 3150 3146 3143 3141 3138 3134 3129 3124 3121 3118 3114 3110 3105 3101 3097 3092
3211 3211 3211 3211 3210 3210 3209 3209 3209 3208 3208 3207 3207 3207 3206 3207 3209 3209 3210 3210 3210 3210 3210 3209 3209 3209 3208 3208 3208 3207 3207 3206 3205 3204 3202 3201 3200 3200 3199 3199 3198 3197 3196 3194 3193 3192 3191 3190 3190 3189 3188 3187 3186 3184 3183 3180 3179 3178 3176 3175 3174 3173 3173 3172 3170 3168 3166 3165 3161 3156 3154 3151 3148 3144 3141 3140 3136 3132 3129 3125 3121 3117 3112 3108 3102 3098 3095 3090
3212 3212 3212 3212 3211 3211 3211 3210 3210 3210 3209 3209 3209 3209 3209 3210 3210 3210 3211 3211 3211 3211 3211 3210 3210 3210 3210 3210 3209 3209 3208 3207 3206 3205 3203 3202 3202 3202 3201 3200 3199 3198 3197 3196 3194 3193 3192 3191 3190 3189 3189 3187 3186 3185 3183 3181 3180 3178 3176 3176 3174 3173 3172 3172 3170 3167 3167 3165 3160 3156 3153 3149 3145 3143 3140 3138 3135 3131 3128 3124 3120 3116 3111 3106 3101 3097 3094 3089
3213 3213 3213 3213 3212 3212 3212 3211 3211 3211 3211 3211 3210 3210 3211 3211 3212 3212 3212 3212 3212 3212 3212 3211 3211 3211 3211 3211 3211 3210 3209 3208 3207 3206 3204 3204 3204 3204 3203 3202 3201 3200 3198 3197 3195 3194 3193 3191 3190 3190 3188 3187 3186 3185 3183 3182 3181 3179 3178 3177 3175 3174 3173 3172 3171 3170 3169 3166 3159 3154 3152 3148 3144 3142 3139 3136 3133 3129 3126 3123 3119 3114 3110 3105 3100 3096 3092 3088
3214 3214 3214 3214 3213 3213 3213 3213 3212 3212 3212 3212 3212 3212 3213 3213 3213 3213 3213 3213 3213 3213 3213 3212 3212 3212 3212 3212 3212 3211 3210 3209 3208 3207 3206 3206 3206 3205 3204 3203 3202 3201 3199 3198 3197 3196 3194 3192 3191 3190 3189 3187 3186 3185 3183 3182 3181 3180 3178 3177 3176 3176 3175 3173 3172 3171 3170 3168 3162 3155 3150 3146 3144 3141 3138 3135 3132 3128 3124 3120 3116 3112 3108 3103 3098 3095 3092 3087
3215 3215 3215 3214 3214 3214 3214 3214 3214 3214 3213 3213 3213 3214 3214 3214 3214 3214 3214 3214 3214 3214 3214 3214 3214 3214 3213 3213 3213 3212 3211 3210 3209 3208 3208 3207 3206 3206 3205 3204 3203 3202 3201 3199 3198 3196 3195 3193 3192 3190 3188 3187 3185 3184 3183 3182 3181 3179 3178 3177 3176 3176 3175 3173 3172 3170 3170 3169 3166 3161 3153 3145 3142 3140 3137 3134 3131 3126 3122 3118 3114 3111 3106 3101 3096 3094 3090 3085
3215 3215 3215 3215 3215 3215 3215 3215 3215 3215 3215 3215 3215 3215 3215 3215 3215 3215 3215 3215 3215 3215 3215 3215 3215 3215 3214 3214 3214 3213 3212 3211 3210 3209 3208 3208 3207 3206 3206 3205 3204 3202 3201 3200 3198 3197 3195 3194 3192 3190 3188 3187 3185 3185 3183 3182 3180 3179 3178 3177 3176 3175 3174 3173 3171 3169 3169 3168 3165 3164 3156 3144 3139 3140 3137 3134 3130 3126 3121 3117 3112 3108 3104 3098 3095 3092 3088 3082
3216 3216 3216 3216 3216 3216 3216 3216 3216 3216 3216 3216 3216 3216 3216 3216 3216 3216 3216 3216 3216 3216 3216 3216 3216 3216 3215 3215 3214 3214 3213 3212 3211 3210 3209 3208 3207 3207 3206 3205 3204 3202 3201 3200 3198 3197 3195 3194 3192 3190 3188 3187 3185 3184 3183 3182 3180 3179 3178 3177 3176 3175 3173 3173 3171 3168 3166 3165 3163 3163 3156 3143 3139 3140 3137 3133 3129 3125 3121 3117 3111 3107 3103 3098 3094 3090 3086 3080
3216 3216 3216 3216 3216 3216 3217 3217 3217 3217 3217 3217 3217 3217 3217 3217 3217 3217 3217 3217 3217 3216 3217 3217 3216 3216 3216 3216 3215 3214 3213 3212 3211 3210 3209 3208 3208 3207 3206 3205 3204 3202 3201 3200 3198 3197 3195 3194 3192 3189 3187 3186 3184 3183 3182 3181 3180 3178 3177 3176 3174 3173 3171 3171 3170 3167 3164 3161 3160 3161 3155 3142 3138 3139 3136 3132 3129 3124 3120 3116 3111 3107 3103 3097 3092 3089 3085 3080
3217 3216 3217 3217 3217 3217 3217 3217 3218 3218 3218 3218 3218 3218 3218 3218 3218 3218 3218 3217 3217 3217 3217 3217 3217 3217 3216 3216 3215 3214 3213 3212 3211 3210 3209 3208 3208 3207 3206 3205 3203 3202 3201 3199 3198 3196 3195 3193 3191 3188 3186 3184 3182 3182 3181 3180 3179 3177 3175 3174 3172 3171 3170 3169 3168 3166 3164 3159 3158 3159 3152 3140 3137 3138 3134 3131 3127 3122 3119 3115 3110 3106 3101 3095 3091 3087 3084 3079
3217 3217 3217 3217 3217 3218 3218 3218 3218 3219 3219 3219 3219 3219 3219 3219 3219 3219 3218 3218 3218 3218 3218 3217 3217 3217 3216 3216 3215 3214 3213 3212 3211 3210 3209 3208 3207 3207 3205 3204 3203 3202 3200 3199 3197 3196 3194 3193 3192 3190 3188 3187 3184 3183 3181 3179 3177 3176 3174 3172 3171 3170 3169 3167 3166 3165 3162 3159 3157 3155 3148 3138 3136 3135 3131 3128 3123 3119 3115 3112 3107 3104 3099 3094 3090 3087 3083 3079
3218 3218 3218 3218 3218 3218 3218 3219 3219 3219 3220 3220 3220 3220 3220 3220 3219 3219 3219 3219 3218 3218 3218 3218 3217 3217 3216 3216 3215 3214 3213 3212 3212 3210 3209 3208 3207 3206 3205 3204 3202 3201 3199 3198 3197 3195 3194 3193 3192 3191 3190 3189 3186 3183 3182 3179 3176 3175 3173 3171 3170 3169 3168 3166 3165 3163 3160 3157 3153 3150 3146 3138 3133 3132 3128 3124 3120 3116 3112 3109 3105 3102 3097 3092 3089 3086 3082 3077
3219 3219 3219 3218 3219 3219 3219 3219 3219 3220 3220 3220 3220 3220 3220 3220 3220 3220 3220 3219 3219 3219 3218 3218 3217 3217 3216 3216 3215 3214 3213 3212 3211 3210 3209 3208 3207 3206 3205 3203 3202 3201 3199 3198 3197 3195 3194 3193 3192 3190 3188 3187 3184 3181 3180 3178 3175 3173 3172 3170 3168 3167 3166 3164 3163 3160 3159 3156 3149 3145 3145 3140 3133 3130 3127 3122 3118 3114 3111 3108 3104 3101 3096 3091 3088 3085 3080 3075
3220 3220 3219 3219 3219 3219 3219 3220 3220 3220 3221 3221 3221 3221 3221 3221 3221 3220 3220 3220 3219 3219 3219 3218 3217 3217 3216 3216 3215 3214 3213 3212 3211 3210 3209 3208 3207 3205 3204 3203 3201 3200 3199 3198 3196 3195 3194 3192 3191 3188 3186 3185 3182 3180 3178 3177 3174 3171 3170 3168 3167 3165 3163 3162 3160 3158 3157 3154 3147 3142 3142 3138 3133 3129 3125 3121 3118 3114 3111 3107 3103 3100 3095 3090 3086 3082 3077 3073
3221 3221 3221 3220 3220 3220 3220 3220 3220 3221 3221 3221 3221 3221 3221 3221 3221 3221 3220 3220 3220 3219 3219 3218 3218 3217 3216 3215 3215 3214 3213 3212 3211 3210 3209 3208 3206 3205 3204 3202 3201 3200 3199 3197 3196 3195 3193 3191 3190 3187 3184 3182 3181 3179 3176 3174 3171 3169 3167 3166 3165 3163 3161 3159 3157 3156 3154 3150 3145 3142 3139 3135 3132 3128 3124 3120 3118 3114 3110 3106 3102 3098 3092 3087 3083 3079 3075 3071
3222 3222 3221 3221 3221 3221 3221 3221 3221 3221 3221 3221 3221 3221 3221 3221 3221 3221 3220 3220 3220 3219 3219 3218 3218 3217 3216 3215 3215 3214 3213 3212 3211 3209 3208 3207 3206 3204 3203 3202 3200 3199 3198 3197 3195 3194 3192 3190 3189 3186 3182 3179 3179 3177 3174 3172 3169 3165 3164 3164 3163 3161 3159 3157 3155 3154 3152 3147 3144 3141 3136 3132 3130 3127 3122 3119 3116 3113 3108 3104 3099 3095 3090 3085 3081 3077 3073 3069
3222 3222 3222 3222 3221 3221 3221 3221 3221 3221 3221 3221 3221 3221 3221 3221 3221 3221 3220 3220 3220 3219 3219 3218 3217 3217 3216 3215 3214 3214 3212 3211 3210 3209 3208 3206 3205 3204 3202 3201 3200 3198 3197 3196 3194 3193 3191 3189 3187 3184 3180 3177 3176 3174 3172 3169 3166 3162 3161 3162 3161 3160 3157 3155 3153 3152 3150 3145 3142 3139 3134 3129 3127 3124 3121 3118 3114 3110 3106 3101 3097 3092 3088 3083 3079 3075 3072 3068
3222 3222 3222 3222 3221 3221 3221 3221 3221 3221 3221 3221 3221 3221 3221 3220 3220 3220 3220 3220 3219 3219 3218 3218 3217 3216 3216 3215 3214 3213 3212 3211 3210 3208 3207 3206 3204 3203 3201 3200 3199 3197 3196 3195 3194 3192 3190 3187 3185 3183 3179 3175 3174 3173 3170 3167 3163 3161 3160 3160 3159 3157 3156 3154 3151 3150 3148 3144 3140 3136 3132 3128 3125 3122 3118 3115 3112 3108 3104 3099 3095 3090 3086 3082 3077 3074 3070 3066